Location: Newark
(44.4156°N, 12.1972°E)
Time: 19:50:06
(UTC+00:00)

STARLINK-1122 - Pass Details

Date: 01 February 2020
Orbit: 349 x 350 km, 53.0° (Epoch: 18 February)

Event Time Altitude Azimuth Distance (km) Brightness Sun altitude
Rises 17:34:27 0° 300° (WNW) 2,159 7.5 -13.6°
Reaches altitude 10° 17:36:29 10° 295° (WNW) 1,313 6.4 -13.9°
Maximum altitude 17:39:20 49° 219° (SW) 462 3.6 -14.4°
Enters shadow 17:41:37 14° 146° (SE) 1,095 4.9 -14.8°
